GW1675 Weather Reports


time (UTC)temp
C
wind
direction
speed
KPH
gust
KPH
rain 1hr
cm
rain 24hr
cm
rain mn
cm
humidity
%
barometer
mb
20260502184545 19 178 11.3 19.3 0.00 0.00 0.00 71 1017.1
20260502183044 20 176 11.3 19.3 0.00 0.00 0.00 71 1017.1
20260502181603 20 176 11.3 19.3 0.00 0.00 0.00 71 1017.2
20260502163050 21 163 14.5 24.1 0.00 0.00 0.00 71 1017.5
20260502161549 21 158 12.9 24.1 0.00 0.00 0.00 71 1017.3
20260502151600 21 145 12.9 19.3 0.00 0.00 0.00 72 1018.0
20260502123045 20 138 9.7 12.9 0.00 0.00 0.00 73 1019.4
20260502121544 20 138 4.8 9.7 0.00 0.00 0.00 73 1019.5
20260502114550 19 162 6.4 12.9 0.00 0.00 0.00 73 1019.8
20260502113043 19 162 4.8 14.5 0.00 0.00 0.00 73 1019.8
20260502111544 20 163 12.9 19.3 0.00 0.00 0.00 74 1020.0
20260502110046 20 162 9.7 14.5 0.00 0.00 0.00 74 1020.1
20260502104551 20 163 1.6 11.3 0.00 0.00 0.00 74 1020.3
20260502103047 18 162 3.2 11.3 0.00 0.00 0.00 74 1020.3
20260502101549 18 162 3.2 8.0 0.00 0.00 0.00 74 1020.4
20260502070044 15 0 0.0 0.0 0.00 0.00 0.00 73 1019.8
20260502064558 15 0 0.0 0.0 0.00 0.00 0.00 72 1019.7
20260502063045 15 0 0.0 0.0 0.00 0.00 0.00 72 1019.6
20260502061547 15 0 0.0 0.0 0.00 0.00 0.00 72 1019.3
20260502060048 15 0 0.0 1.6 0.00 0.00 0.00 72 1019.5
20260502054558 15 0 0.0 0.0 0.00 0.00 0.00 72 1019.5
20260502053046 15 0 0.0 0.0 0.00 0.00 0.00 72 1019.4
20260502051544 16 0 0.0 0.0 0.00 0.00 0.00 72 1019.1
20260502050051 16 0 0.0 0.0 0.00 0.00 0.00 72 1019.2
20260502044550 16 0 0.0 0.0 0.00 0.00 0.00 72 1019.4
20260502043050 16 0 0.0 0.0 0.00 0.00 0.00 72 1019.4
20260502041546 15 0 0.0 0.0 0.00 0.00 0.00 72 1019.3
20260502040054 16 0 0.0 0.0 0.00 0.00 0.00 72 1019.4
20260502034544 16 0 0.0 0.0 0.00 0.00 0.00 72 1019.2
20260502033048 16 0 0.0 0.0 0.00 0.00 0.00 71 1019.4
20260502031555 16 0 0.0 0.0 0.00 0.00 0.00 71 1019.4
20260502030043 16 0 0.0 0.0 0.00 0.00 0.00 71 1019.4
20260502024545 16 0 0.0 0.0 0.00 0.00 0.00 71 1019.5
20260502023049 16 0 0.0 0.0 0.00 0.00 0.00 71 1019.5
20260502021544 16 0 0.0 0.0 0.00 0.00 0.00 71 1019.5
20260502020108 16 0 0.0 0.0 0.00 0.00 0.00 71 1019.8
20260502014551 16 0 0.0 0.0 0.00 0.00 0.00 71 1019.9
20260502013044 16 0 0.0 0.0 0.00 0.00 0.00 71 1019.8
20260502011551 16 0 0.0 0.0 0.00 0.00 0.00 71 1020.0
20260502010044 16 162 1.6 3.2 0.00 0.00 0.00 71 1020.0
20260502004547 16 0 0.0 0.0 0.00 0.00 0.00 71 1020.0
20260502003049 16 0 0.0 0.0 0.00 0.00 0.00 71 1020.4
20260502001622 16 0 0.0 0.0 0.00 0.00 0.00 71 1020.4
20260502000044 16 0 0.0 0.0 0.00 0.00 0.00 71 1020.5
20260501234545 16 0 0.0 0.0 0.00 0.00 0.00 71 1020.6
20260501233050 16 0 0.0 0.0 0.00 0.00 0.00 71 1020.8
20260501231547 16 0 0.0 3.2 0.00 0.00 0.00 71 1020.8
20260501230045 16 163 1.6 3.2 0.00 0.00 0.00 70 1020.8
20260501224556 16 0 0.0 3.2 0.00 0.00 0.00 70 1021.0
20260501223044 16 163 1.6 6.4 0.00 0.00 0.00 70 1021.0
20260501221551 16 163 3.2 6.4 0.00 0.00 0.00 70 1021.1
20260501220051 16 163 1.6 3.2 0.00 0.00 0.00 70 1021.1
20260501214546 16 163 1.6 6.4 0.00 0.00 0.00 69 1021.2
20260501213050 16 0 0.0 1.6 0.00 0.00 0.00 69 1020.9
20260501211547 16 163 0.0 3.2 0.00 0.00 0.00 69 1020.8
20260501210054 17 163 0.0 8.0 0.00 0.00 0.00 69 1020.8
20260501204545 17 163 1.6 4.8 0.00 0.00 0.00 68 1020.7
20260501203047 17 163 3.2 6.4 0.00 0.00 0.00 68 1020.4
20260501201545 17 163 1.6 6.4 0.00 0.00 0.00 68 1020.2
20260501200045 18 163 3.2 8.0 0.00 0.00 0.00 68 1020.0
20260501194544 18 162 3.2 8.0 0.00 0.00 0.00 68 1020.0
20260501193044 18 162 4.8 8.0 0.00 0.00 0.00 68 1019.8
20260501191542 19 162 6.4 9.7 0.00 0.00 0.00 68 1019.6
20260501190048 19 162 4.8 9.7 0.00 0.00 0.00 68 1019.5